This is the latest recevied weather packets stored in our database for station/object VA3JLF-1. If no packets are shown the sender has not sent any weather packets the latest 10 day(s).
| Time | Temp. | Humidity | Pressure | Rain* | Wind** | Luminosity | Snow |
|---|---|---|---|---|---|---|---|
| 1778158151 | 6.67° C | - | - | - | - | - | - |
| 1778158148 | 6.67° C | 70% | 1009.1 hPa | 0 mm | - | - | - |
| 1778157548 | 5.56° C | 69% | 1009.1 hPa | 0 mm | - | - | - |
| 1778156969 | 5.56° C | - | - | - | - | - | - |
| 1778156949 | 5.56° C | 67% | 1009.2 hPa | 0 mm | - | - | - |
| 1778156349 | 5.56° C | 71% | 1009.1 hPa | 0 mm | - | - | - |
| 1778155748 | 5.56° C | 70% | 1009.3 hPa | 0 mm | - | - | - |
| 1778155149 | 5.56° C | 72% | 1009.2 hPa | 0 mm | - | - | - |
| 1778154548 | 5.56° C | 72% | 1009.1 hPa | 0 mm | - | - | - |
| 1778153948 | 5.56° C | 74% | 1009.2 hPa | 0 mm | - | - | - |
| 1778153348 | 5.56° C | 74% | 1008.9 hPa | 0 mm | - | - | - |
| 1778152748 | 5.56° C | 73% | 1009.2 hPa | 0 mm | - | - | - |
| 1778152148 | 5.56° C | 73% | 1009 hPa | 0 mm | - | - | - |
| 1778151548 | 5.56° C | 76% | 1008.8 hPa | 0 mm | - | - | - |
| 1778150948 | 5° C | 74% | 1008.9 hPa | 0 mm | - | - | - |
| 1778150349 | 5.56° C | 76% | 1008.7 hPa | 0 mm | - | - | - |
| 1778149748 | 5° C | 86% | 1008.7 hPa | 0 mm | - | - | - |
| 1778149148 | 5° C | 88% | 1008.6 hPa | 0 mm | - | - | - |
| 1778148548 | 5° C | 87% | 1008.5 hPa | 0 mm | - | - | - |
| 1778147948 | 5° C | 82% | 1008.4 hPa | 0 mm | - | - | - |
| 1778147348 | 5° C | 76% | 1008.1 hPa | 0 mm | - | - | - |
| 1778146748 | 5° C | 76% | 1008.2 hPa | 0 mm | - | - | - |
| 1778146148 | 5° C | 77% | 1008.3 hPa | 0 mm | - | - | - |
| 1778145548 | 5° C | 77% | 1008.1 hPa | 0 mm | - | - | - |
| 1778144949 | 5° C | 74% | 1008.5 hPa | 0 mm | - | - | - |
* Rain since midnight (hover to see other rain measurements)
** Current wind speed in m/s (hover to see current wind gust speed)